Zurück zum Katalog

STARLINK-35466

AktivKommunikationVLEO
NORAD 66457·PAYLOAD·🇺🇸 United States

Gestartet Nov 15, 2025 von Cape Canaveral Space Force Station

Loading…

Nächste Überflüge (nächste 24 Stunden)

TLE

AktuellSource: CelesTrak SupGP

Epoche: Sep 14, 2026, 20:54 UTC

1 66457C 25262B   26257.87131944 -.00017470  00000+0 -63334-3 0  2573
2 66457  43.0017 307.9799 0001346 270.2572 208.3392 15.27556860    11

Verfolge STARLINK-35466 in Echtzeit mit AllMySat

Download on the App Store